sat.trackr.live / text

‹ back to catalog

STARLINK-30815

NORAD 58164 · 2023-166Q

PAYLOAD ACTIVE UNKNOWN

§ Identity

Operator
Country
US
Launch date
2023-10-29
Launch site
AFWTR
Launch vehicle
Mass (kg)
RCS (m²)

Purposes: comms

External: N2YO · Heavens-Above · Gunter

§ Orbital elements

Epoch: 2026-05-24T22:08:52.961280Z

Period
94.01 min
Inclination
53.1600°
Eccentricity
0.0000453
Mean motion
15.31713907 rev/d
Perigee alt
470.4 km
Apogee alt
471.0 km
Semi-major
6,848.8 km
B*
4.3879e-5
RAAN
225.3305°
Arg perigee
187.3888°
Mean anomaly
172.7107°
Rev number
14,485

§ Raw data

STARLINK-308151 58164U 23166Q   26144.92283520  .00000998  00000+0  43879-4 0  99902 58164  53.1600 225.3305 0000453 187.3888 172.7107 15.31713907144850

JSON: /api/v1/satellites/58164 · /tle

For live sub-satellite position, see the globe view (requires WebGL).

§ Visibility from observer

Set your observer location to see the next 7 days of passes ≥ 10°. The values pass through the URL so the page stays shareable.

No JS? Fill the form by hand. The geolocation button needs JavaScript.